Regional Weather Roundup
Issued by NWS

Home | Current Version | Previous Version | Text Only | Print | Product List | Glossary On
Versions: 1 2 3 4 5 6 7 8 9 10 11 12 13 14 15 16 17 18 19 20 21 22 23 24 25 26 27 28 29 30 31 32 33 34 35 36 37 38 39 40 41 42 43 44 45 46 47 48 49 50
000
ASUS43 KBIS 271610
RWRND

NORTH DAKOTA REGIONAL WEATHER ROUNDUP
NATIONAL WEATHER SERVICE BISMARCK ND
1100 AM CDT MON JUL 27 2015

NOTE: "FAIR" INDICATES FEW OR NO CLOUDS BELOW 12,000 FEET WITH NO
SIGNIFICANT WEATHER AND/OR OBSTRUCTIONS TO VISIBILITY.


NDZ001>003-009>011-017-271700-
NORTHWEST NORTH DAKOTA

CITY           SKY/WX    TMP DP  RH WIND       PRES   REMARKS
WILLISTON      MOSUNNY   80  58  46 E14       29.76F
MINOT          MOSUNNY   76  64  66 E10       29.79F
MINOT AFB      MOSUNNY   78  71  79 SE12      29.78F
$$

NDZ018>021-031>035-040>046-271700-
SOUTHWEST NORTH DAKOTA

CITY           SKY/WX    TMP DP  RH WIND       PRES   REMARKS
BISMARCK       SUNNY     82  65  56 SE15      29.79F
DICKINSON      SUNNY     77  60  55 E10       29.76S
GARRISON         N/A     77  67  71 E9        29.78F
HETTINGER ARPT SUNNY     79  61  53 S17G25    29.76S
$$

NDZ004>008-012>016-024-026-027-054-271700-
NORTHEAST NORTH DAKOTA

CITY           SKY/WX    TMP DP  RH WIND       PRES   REMARKS
GRAND FORKS    PTSUNNY   80  70  71 SE10      29.86S
GRND FRKS AFB  PTSUNNY   81  71  71 SE10      29.87S
DEVILS LAKE    PTSUNNY   79  66  65 SE13      29.85S
$$

NDZ022-023-025-028>030-036>039-047>053-271700-
SOUTHEAST NORTH DAKOTA

CITY           SKY/WX    TMP DP  RH WIND       PRES   REMARKS
FARGO          PTSUNNY   84  72  67 SE8       29.86S
JAMESTOWN      LGT RAIN  73  68  84 SE13      29.83F
$$




USA.gov is the U.S. government's official web portal to all federal, state and local government web resources and services.